(164) Eva(164) Eva Epoch 2008 Nov. 30.0 TT = JDT 2454800.5 Goffin M 294.28542 (2000.0) P Q n 0.23077910 Peri. 283.46455 +0.91472330 +0.00965666 a 2.6323182 Node 77.15121 +0.18797872 +0.87478310 e 0.3456256 Incl. 24.47778 -0.35769439 +0.48441850 P 4.27 H 8.89 G 0.15 U 0 From 215 observations at 38 oppositions, 1876-1999, mean residual 0".55.An explanation of the orbital elements is available.
These orbital elements are also available in forms suitable for loading into a number of popular planetarium-type software programs.
Personalized ephemerides for this object (and others) can be generated using the MPES.
Date TT R. A. (2000) Decl. Delta r Elong. Phase V 2009 07 30 01 57.18 -29 30.6 1.158 1.754 107.4 33.5 11.8 2009 08 04 02 06.12 -30 00.1 1.128 1.747 109.2 33.3 11.8 2009 08 09 02 14.35 -30 31.7 1.099 1.741 111.0 32.9 11.7 2009 08 14 02 21.77 -31 05.2 1.071 1.736 112.8 32.5 11.6 2009 08 19 02 28.30 -31 40.1 1.046 1.732 114.6 32.1 11.5 2009 08 24 02 33.82 -32 15.7 1.021 1.728 116.5 31.6 11.5 2009 08 29 02 38.27 -32 51.2 0.999 1.726 118.5 31.0 11.4 2009 09 03 02 41.56 -33 25.3 0.978 1.724 120.4 30.3 11.3 2009 09 08 02 43.63 -33 57.0 0.958 1.723 122.5 29.6 11.3 2009 09 13 02 44.42 -34 24.8 0.941 1.723 124.5 28.8 11.2 2009 09 18 02 43.89 -34 47.1 0.925 1.724 126.5 27.9 11.1 2009 09 23 02 42.04 -35 01.8 0.912 1.726 128.5 27.1 11.1 2009 09 28 02 38.94 -35 06.7 0.901 1.728 130.4 26.2 11.0 2009 10 03 02 34.72 -34 59.8 0.893 1.732 132.2 25.4 11.0 2009 10 08 02 29.54 -34 39.5 0.888 1.736 133.7 24.6 11.0 2009 10 13 02 23.62 -34 04.3 0.886 1.741 135.0 23.9 11.0 2009 10 18 02 17.23 -33 13.0 0.888 1.747 135.9 23.4 10.9 2009 10 23 02 10.67 -32 05.2 0.894 1.753 136.3 23.1 11.0 2009 10 28 02 04.25 -30 41.3 0.903 1.761 136.3 23.0 11.0 2009 11 02 01 58.23 -29 02.6 0.918 1.769 135.7 23.1 11.0 2009 11 07 01 52.84 -27 11.0 0.936 1.778 134.6 23.4 11.1 2009 11 12 01 48.22 -25 08.7 0.960 1.788 133.0 23.9 11.2 2009 11 17 01 44.51 -22 57.9 0.987 1.798 130.9 24.5 11.3 2009 11 22 01 41.76 -20 41.1 1.020 1.809 128.6 25.3 11.4 2009 11 27 01 40.00 -18 20.8 1.057 1.820 125.9 26.0 11.5 2009 12 02 01 39.21 -15 58.9 1.098 1.833 123.1 26.8 11.6 2009 12 07 01 39.33 -13 37.3 1.143 1.845 120.1 27.5 11.7